Date String (YYYY-MM-DD hh:mm:ss) UTC,Instrument flags,Ambient pressure (hPa),Sample flow (lpm),Bypass flow (lpm),Sample temperature (°C),Ambient temperature (°C),ASC tube jacket temperature (°C),LED temperature (°C),Box temperature (°C),Sample RH (%),Span deviation,Mass concentration (μg/m³),Mass concentration (μg/m³),Mass concentration (μg/m³)
DateTimeUTC,F1_M11,P_M11,Q1_M11,Q2_M11,T1_M11,T2_M11,T3_M11,T4_M11,T5_M11,U1_M11,ZSPAN_M11,X0_M11,X2_M11,X1_M11
2022-01-08 15:00:00,,0815.3,5.01,0.00,22.9,22.2,00.0,31.9,24.7,13.5,0000.0,0000.90,0000.48,0000.37
2022-01-08 15:01:00,,0815.2,4.99,0.00,22.9,22.2,00.0,31.9,24.7,13.4,0000.0,0000.89,0000.47,0000.36
2022-01-08 15:02:00,,0815.2,5.00,0.00,22.9,22.2,00.0,32.0,24.8,13.5,0000.0,0000.86,0000.46,0000.36
2022-01-08 15:03:00,,0815.2,5.01,0.00,22.9,22.2,00.0,32.0,24.8,13.5,0000.0,0000.85,0000.45,0000.36
2022-01-08 15:04:00,,0815.3,5.00,0.00,22.9,22.3,00.0,31.9,24.8,13.5,0000.0,0000.92,0000.46,0000.36
2022-01-08 15:05:00,,0815.4,4.99,0.00,23.0,22.3,00.0,32.0,24.8,13.5,0000.0,0000.79,0000.46,0000.36
2022-01-08 15:06:00,,0815.4,5.01,0.00,23.0,22.3,00.0,32.0,24.8,13.6,0000.0,0000.75,0000.44,0000.36
2022-01-08 15:07:00,,0815.4,5.00,0.00,23.0,22.3,00.0,32.0,24.7,13.6,0000.0,0000.67,0000.41,0000.36
2022-01-08 15:08:00,,0815.4,5.01,0.00,23.0,22.3,00.0,32.0,24.8,13.9,0000.0,0000.66,0000.41,0000.36
2022-01-08 15:09:00,,0815.6,5.00,0.00,23.0,22.3,00.0,32.0,24.8,14.0,0000.0,0000.66,0000.41,0000.36
2022-01-08 15:10:00,,0816.0,4.99,0.00,23.0,22.3,00.0,32.0,24.8,13.9,0000.0,0000.68,0000.42,0000.36
2022-01-08 15:11:00,,0816.1,5.02,0.00,23.0,22.3,00.0,32.0,24.8,13.7,0000.0,0000.70,0000.43,0000.36
2022-01-08 15:12:00,,0816.0,4.99,0.00,23.0,22.3,00.0,32.0,24.8,13.9,0000.0,0000.70,0000.43,0000.36
2022-01-08 15:13:00,,0815.6,5.02,0.00,23.0,22.3,00.0,32.0,24.8,14.1,0000.0,0000.75,0000.45,0000.36
2022-01-08 15:14:00,,0815.6,4.99,0.00,23.0,22.3,00.0,32.0,24.8,13.8,0000.0,0000.76,0000.46,0000.36
2022-01-08 15:15:00,,0815.7,5.00,0.00,23.0,22.3,00.0,32.0,24.8,13.8,0000.0,0000.70,0000.45,0000.36
2022-01-08 15:16:00,,0815.7,5.01,0.00,23.0,22.3,00.0,32.0,24.8,13.5,0000.0,0000.60,0000.44,0000.35
2022-01-08 15:17:00,,0815.6,5.00,0.00,22.9,22.2,00.0,32.0,24.7,13.6,0000.0,0000.60,0000.44,0000.35
2022-01-08 15:18:00,,0815.7,5.00,0.00,22.9,22.2,00.0,32.0,24.7,13.8,0000.0,0000.60,0000.44,0000.35
2022-01-08 15:19:00,,0815.7,5.00,0.00,22.9,22.2,00.0,32.0,24.7,13.7,0000.0,0000.66,0000.45,0000.35
2022-01-08 15:20:00,,0815.9,5.00,0.00,22.9,22.2,00.0,32.0,24.7,13.8,0000.0,0000.72,0000.46,0000.36
2022-01-08 15:21:00,,0816.0,5.01,0.00,22.9,22.2,00.0,32.0,24.7,13.8,0000.0,0000.75,0000.47,0000.37
2022-01-08 15:22:00,,0815.9,4.99,0.00,22.9,22.2,00.0,31.9,24.7,13.9,0000.0,0000.77,0000.49,0000.38
2022-01-08 15:23:00,,0815.8,4.99,0.00,22.9,22.3,00.0,31.9,24.7,13.9,0000.0,0000.80,0000.51,0000.39
2022-01-08 15:24:00,,0815.6,5.01,0.00,22.9,22.3,00.0,31.9,24.7,13.9,0000.0,0000.78,0000.49,0000.40
2022-01-08 15:25:00,,0815.6,5.00,0.00,22.9,22.2,00.0,31.9,24.6,13.3,0000.0,0001.22,0000.83,0000.69
2022-01-08 15:26:00,,0815.9,5.01,0.00,22.8,22.1,00.0,31.9,24.6,13.2,0000.0,0002.11,0001.36,0001.16
2022-01-08 15:27:00,,0815.9,5.00,0.00,22.8,22.1,00.0,31.9,24.5,12.9,0000.0,0003.20,0002.09,0001.85
2022-01-08 15:28:00,,0816.1,5.00,0.00,22.8,22.1,00.0,31.9,24.6,12.7,0000.0,0004.23,0002.96,0002.70
2022-01-08 15:29:00,,0816.1,5.00,0.00,22.8,22.1,00.0,31.9,24.6,12.6,0000.0,0005.33,0003.54,0003.36
2022-01-08 15:30:00,,0816.2,5.00,0.00,22.8,22.1,00.0,31.9,24.6,12.6,0000.2,0007.08,0004.01,0003.82
2022-01-08 15:31:00,,0816.2,4.99,0.00,22.8,22.1,00.0,31.9,24.6,12.6,0000.1,0008.10,0004.52,0004.28
2022-01-08 15:32:00,,0816.1,4.99,0.00,22.8,22.1,00.0,31.9,24.6,12.7,0000.0,0008.67,0005.00,0004.76
2022-01-08 15:33:00,,0816.2,4.99,0.00,22.8,22.1,00.0,31.9,24.6,12.7,0000.4,0009.15,0005.44,0005.19
2022-01-08 15:34:00,,0816.3,5.01,0.00,22.8,22.2,00.0,31.9,24.6,12.7,0000.4,0009.64,0005.89,0005.65
2022-01-08 15:35:00,,0816.3,5.01,0.00,22.8,22.2,00.0,31.8,24.6,12.7,0000.4,0010.20,0006.38,0006.10
2022-01-08 15:36:00,,0816.4,4.99,0.00,22.8,22.2,00.0,31.8,24.6,12.7,0000.3,0010.47,0006.63,0006.36
2022-01-08 15:37:00,,0816.4,5.01,0.00,22.8,22.1,00.0,31.8,24.6,12.7,0000.2,0010.56,0006.84,0006.56
2022-01-08 15:38:00,,0816.4,5.01,0.00,22.8,22.1,00.0,31.8,24.6,12.6,0000.6,0010.63,0006.93,0006.64
2022-01-08 15:39:00,,0816.4,4.99,0.00,22.8,22.1,00.0,31.8,24.6,12.6,0000.9,0010.66,0006.95,0006.65
2022-01-08 15:40:00,,0816.4,5.00,0.00,22.8,22.1,00.0,31.8,24.6,12.6,0000.8,0010.67,0006.93,0006.63
2022-01-08 15:41:00,,0816.4,5.01,0.00,22.8,22.1,00.0,31.8,24.6,12.6,0000.8,0010.35,0006.93,0006.64
2022-01-08 15:42:00,,0816.5,5.00,0.00,22.8,22.1,00.0,31.8,24.5,12.6,0000.8,0010.04,0006.88,0006.60
2022-01-08 15:43:00,,0816.5,5.00,0.00,22.8,22.1,00.0,31.8,24.5,12.7,0000.5,0009.99,0006.85,0006.55
2022-01-08 15:44:00,,0816.5,5.01,0.00,22.7,22.1,00.0,31.8,24.5,12.6,0000.1,0010.27,0006.87,0006.56
2022-01-08 15:45:00,,0816.5,5.00,0.00,22.7,22.0,00.0,31.8,24.5,12.5,0000.2,0010.37,0006.85,0006.53
2022-01-08 15:46:00,,0816.5,4.99,0.00,22.7,22.0,00.0,31.8,24.4,12.6,0000.3,0010.34,0006.82,0006.51
2022-01-08 15:47:00,,0816.5,5.01,0.00,22.7,21.9,00.0,31.8,24.4,12.4,0000.7,0010.38,0006.85,0006.54
2022-01-08 15:48:00,,0816.5,4.99,0.00,22.6,21.9,00.0,31.8,24.3,12.3,0000.7,0010.33,0006.82,0006.53
2022-01-08 15:49:00,,0816.5,5.01,0.00,22.6,21.8,00.0,31.8,24.3,12.3,0000.3,0010.24,0006.82,0006.53
2022-01-08 15:50:00,,0816.5,4.98,0.00,22.6,21.8,00.0,31.7,24.3,12.1,0000.2,0010.46,0006.81,0006.52
2022-01-08 15:51:00,,0816.6,5.01,0.00,22.6,21.7,00.0,31.7,24.3,12.3,0000.2,0010.92,0006.81,0006.53
2022-01-08 15:52:00,,0816.6,5.00,0.00,22.5,21.7,00.0,31.7,24.2,12.3,0000.4,0010.78,0006.83,0006.55
2022-01-08 15:53:00,,0816.7,4.99,0.00,22.5,21.7,00.0,31.7,24.2,12.3,0001.1,0011.22,0006.88,0006.59
2022-01-08 15:54:00,,0817.0,5.01,0.00,22.5,21.7,00.0,31.7,24.2,12.1,0001.7,0011.25,0006.95,0006.66
2022-01-08 15:55:00,,0816.9,5.00,0.00,22.5,21.7,00.0,31.7,24.2,12.2,0001.6,0011.15,0007.03,0006.73
2022-01-08 15:56:00,,0816.8,5.00,0.00,22.5,21.7,00.0,31.6,24.2,12.1,0001.4,0011.11,0007.09,0006.79
2022-01-08 15:57:00,,0817.2,5.00,0.00,22.5,21.7,00.0,31.6,24.2,12.2,0001.1,0011.26,0007.18,0006.85
2022-01-08 15:58:00,,0817.1,5.00,0.00,22.5,21.8,00.0,31.6,24.2,12.3,0001.1,0011.42,0007.26,0006.89
2022-01-08 15:59:00,,0816.9,5.01,0.00,22.5,21.8,00.0,31.6,24.2,12.3,0001.1,0011.71,0007.29,0006.93
